Regional Weather Roundup
Issued by NWS Mt. Holly, NJ

Home | Current Version | Previous Version | Text Only | Print | Product List | Glossary On
Versions: 1 2 3 4 5 6 7 8 9 10 11 12 13 14 15 16 17 18 19 20 21 22 23 24 25 26 27 28 29 30 31 32 33 34 35 36 37 38 39 40 41 42 43 44 45 46 47 48 49 50
000
ASUS41 KPHI 231710
RWRPHI

REGIONAL WEATHER ROUNDUP
NATIONAL WEATHER SERVICE MOUNT HOLLY NJ
100 PM EDT SAT AUG 23 2014

NOTE:  "FAIR" INDICATES FEW OR NO CLOUDS BELOW 12,000 FEET WITH NO
SIGNIFICANT WEATHER AND/OR OBSTRUCTIONS TO VISIBILITY.

 * = STATION DOES NOT REPORT PRECIPITATION (E.G. RAIN, SNOW, ETC.)
        OR FOG.

NJZ015>026-231800-
SOUTHERN NEW JERSEY

CITY           SKY/WX    TMP DP  RH WIND       PRES   REMARKS
POMONA         PTSUNNY   73  63  70 E15       30.06S
RIO GRANDE*    PTSUNNY   75  61  60 E15G23    30.05F
MILLVILLE      CLOUDY    75  62  64 E14       30.05S
WRIGHTSTOWN    LGT RAIN  70  64  83 NE10      30.05F
MOUNT HOLLY    CLOUDY    72  66  81 VRB6      30.06F
TRENTON        PTSUNNY   70  62  76 E10       30.08S

$$
NJZ001>014-231800-
NORTHERN NEW JERSEY

CITY           SKY/WX    TMP DP  RH WIND       PRES   REMARKS
SUSSEX         CLOUDY    72  60  66 VRB5      30.10F
ANDOVER*         N/A     67  61  81 CALM      30.11S
MORRISTOWN     CLOUDY    70  61  73 E7        30.10S
NEWARK         CLOUDY    72  59  63 E7        30.09S
TETERBORO      CLOUDY    73  58  59 NE8       30.08F
CALDWELL       CLOUDY    70  57  63 E8        30.10S
SOMERVILLE     LGT RAIN  70  62  76 CALM      30.08R
ALLAIRE*       CLOUDY    70  61  73 E12       30.08F
TOMS RIVER*    CLOUDY    72  63  73 E9        30.08S

$$
PAZ043-044-047-054-055-060>062-066>071-231800-
EASTERN PENNSYLVANIA

CITY           SKY/WX    TMP DP  RH WIND       PRES   REMARKS
PHILADELPHIA   PTSUNNY   74  64  71 E9        30.07F
NORTH PHILA    CLOUDY    72  63  73 NE10      30.09S
BLUE BELL      PTSUNNY   72  64  78 E7        30.08S
DOYLESTOWN     PTSUNNY   69  65  86 VRB6      30.08F
QUAKERTOWN*    PTSUNNY   68  64  88 MISG      30.10F
POTTSTOWN      CLOUDY    70  63  78 NE8       30.09F
LANCASTER      CLOUDY    69  62  78 E7        30.07F
COATESVILLE    CLOUDY    68 -35   1 E7        30.09S
READING        CLOUDY    68  62  81 NE6       30.08S
ALLENTOWN      CLOUDY    72  63  73 E7        30.09F
MOUNT POCONO   LGT RAIN  61  59  93 SE8       30.13S
HAZLETON       CLOUDY    61  59  94 E5        30.15S
WILKES BARRE   LGT RAIN  66  61  82 CALM      30.11S

$$
DEZALL-MDZ008-012-015-019-020-231800-
DELAWARE AND EASTERN MARYLAND

CITY           SKY/WX    TMP DP  RH WIND       PRES   REMARKS
WILMINGTON     CLOUDY    73  64  73 NE14      30.07S
DOVER          SUNNY     78  65  65 E15       30.03S
GEORGETOWN     CLOUDY    76  64  66 E13G22    30.04R
EASTON         CLOUDY    77  68  73 E3        30.06F
PATUXENT       CLOUDY    75  66  73 E5        30.02F
OCEAN CITY     PTSUNNY   77  67  71 E13       30.03R
WALLOPS ISLAND MOSUNNY   79  69  71 E13       30.02S
CAMBRIDGE      CLOUDY    79  66  65 CALM      30.02S
SALISBURY      CLOUDY    77  67  71 E7        30.02S

$$
PAZ001-021-NYZ056-072-MDZ011-DCZ001-231800-
OTHER NEARBY LOCATIONS

CITY           SKY/WX    TMP DP  RH WIND       PRES   REMARKS
HARRISBURG     CLOUDY    71  63  75 SE8       30.06F
WILLIAMSPORT   CLOUDY    67  60  78 E12       30.08S
BINGHAMTON     LGT RAIN  62  61  96 SE6       30.12S FOG
NEW YORK CITY  CLOUDY    73  58  59 E9        30.12S
BALTIMORE      LGT RAIN  71  67  87 E5        30.04F
WASHINGTON DC  CLOUDY    75  64  69 SE5       30.04F

$$



USA.gov is the U.S. government's official web portal to all federal, state and local government web resources and services.